Change the Weather History Date:

Saturday, June 22, 2013

  Actual Average (KSTL) Record (KSTL)
Temperature  
Mean Temperature 79 °F 78 °F  
Max Temperature 87 °F 87 °F 102 °F (1930)
Min Temperature 71 °F 69 °F 51 °F (1972)
Degree Days  
Heating Degree Days 0 0  
Month to date heating degree days 3  
Since 1 June heating degree days 3  
Since 1 July heating degree days 4533  
Cooling Degree Days 14 13  
Month to date cooling degree days 222  
Year to date cooling degree days 396  
Since 1 June cooling degree days 222  
Growing Degree Days 29 (Base 50)    
Moisture  
Dew Point 70 °F    
Average Humidity 81    
Maximum Humidity 89    
Minimum Humidity 62    
Precipitation  
Precipitation 0.00 in 0.14 in 1.99 in (1969)
Month to date precipitation 3.25  
Year to date precipitation 19.62  
Snow  
Snow 0.00 in 0.00 in 0.00 in (2013)
Month to date snowfall 0.0  
Since 1 June snowfall 0.0  
Since 1 July snowfall 17.7  
Snow Depth -    
Sea Level Pressure  
Sea Level Pressure 30.04 in    
Wind  
Wind Speed 6 mph (SE)    
Max Wind Speed 14 mph    
Max Gust Speed 18 mph    
Visibility 10 miles    
Events Thunderstorm    
T = Trace of Precipitation, MM = Missing Value Source: NWS Daily Summary

Daily Weather History Graph

Daily Weather History Graph

Search for Another Location

Airport or City:

Trip Planner

Search our weather history database for the weather conditions in past years. The results will help you decide how hot, cold, wet, or windy it might be!

Date:

Astronomy

Jun. 22, 2013 Rise Set
Actual Time 5:40 AM CDT 8:32 PM CDT
Civil Twilight 5:08 AM CDT 9:03 PM CDT
Nautical Twilight 4:28 AM CDT 9:43 PM CDT
Astronomical Twilight 3:42 AM CDT 10:29 PM CDT
Moon 7:47 PM CDT (6/22) 4:52 AM CDT (6/22)
Length of Visible Light 15h 55m
Length of Day
14h 51m
Waxing Gibbous, 99% of the Moon is Illuminated
Jun 22
Waxing Gibbous
Jun 23
Full
Jun 29
Last Quarter
Jul 8
New
Jul 15
First Quarter

Hourly Weather History & Observations

Time (CDT) Temp. Heat Index Dew Point Humidity Pressure Visibility Wind Dir Wind Speed Gust Speed Precip Events Conditions
12:15 AM 78.8 °F - 71.6 °F 78% 30.04 in 10.0 mi ESE 5.8 mph - N/A   Clear
12:35 AM 78.8 °F - 71.6 °F 78% 30.04 in 10.0 mi ESE 6.9 mph - N/A   Clear
12:55 AM 78.8 °F - 71.6 °F 78% 30.05 in 10.0 mi ESE 6.9 mph - N/A   Clear
1:15 AM 78.8 °F - 71.6 °F 78% 30.04 in 10.0 mi SE 4.6 mph - N/A   Clear
1:35 AM 77.0 °F - 71.6 °F 83% 30.04 in 10.0 mi Calm Calm - N/A   Clear
1:55 AM 75.2 °F - 71.6 °F 89% 30.03 in 10.0 mi SE 4.6 mph - N/A   Clear
2:15 AM 77.0 °F - 71.6 °F 83% 30.03 in 10.0 mi SE 3.5 mph - N/A   Clear
2:35 AM 77.0 °F - 71.6 °F 83% 30.03 in 10.0 mi SSE 4.6 mph - N/A   Clear
2:55 AM 75.2 °F - 71.6 °F 89% 30.02 in 10.0 mi SE 4.6 mph - N/A   Clear
3:15 AM 75.2 °F - 71.6 °F 89% 30.01 in 10.0 mi SE 5.8 mph - N/A   Clear
3:35 AM 75.2 °F - 71.6 °F 89% 30.01 in 10.0 mi SSE 4.6 mph - N/A   Clear
3:55 AM 75.2 °F - 71.6 °F 89% 30.00 in 10.0 mi SSE 4.6 mph - N/A   Clear
4:15 AM 75.2 °F - 69.8 °F 83% 30.01 in 10.0 mi SE 3.5 mph - N/A   Clear
4:35 AM 75.2 °F - 71.6 °F 89% 30.02 in 10.0 mi SE 3.5 mph - N/A   Clear
4:55 AM 75.2 °F - 71.6 °F 89% 30.03 in 10.0 mi ESE 3.5 mph - N/A   Clear
5:15 AM 75.2 °F - 69.8 °F 83% 30.04 in 10.0 mi ESE 4.6 mph - N/A   Clear
5:35 AM 77.0 °F - 69.8 °F 78% 30.05 in 10.0 mi ESE 4.6 mph - N/A   Clear
5:55 AM 75.2 °F - 69.8 °F 83% 30.06 in 10.0 mi ESE 5.8 mph - N/A   Clear
6:15 AM 75.2 °F - 69.8 °F 83% 30.06 in 10.0 mi SE 3.5 mph - N/A   Clear
6:35 AM 75.2 °F - 69.8 °F 83% 30.06 in 10.0 mi ESE 4.6 mph - N/A   Partly Cloudy
6:55 AM 75.2 °F - 71.6 °F 89% 30.06 in 9.0 mi SE 6.9 mph - N/A   Mostly Cloudy
7:15 AM 75.2 °F - 71.6 °F 89% 30.07 in 10.0 mi SE 5.8 mph - N/A   Partly Cloudy
7:35 AM 77.0 °F - 71.6 °F 83% 30.07 in 10.0 mi SE 4.6 mph - N/A   Clear
7:55 AM 77.0 °F - 71.6 °F 83% 30.07 in 10.0 mi SE 3.5 mph - N/A   Clear
8:15 AM 77.0 °F - 71.6 °F 83% 30.08 in 10.0 mi SE 4.6 mph - N/A   Clear
8:35 AM 77.0 °F - 71.6 °F 83% 30.08 in 10.0 mi SSE 5.8 mph - N/A   Clear
8:55 AM 78.8 °F - 71.6 °F 78% 30.08 in 10.0 mi South 5.8 mph - N/A   Clear
9:15 AM 78.8 °F - 73.4 °F 83% 30.08 in 10.0 mi SSE 6.9 mph - N/A   Scattered Clouds
9:35 AM 78.8 °F - 73.4 °F 83% 30.07 in 10.0 mi SSE 6.9 mph - N/A   Partly Cloudy
9:55 AM 80.6 °F 85.4 °F 73.4 °F 79% 30.07 in 10.0 mi South 9.2 mph 16.1 mph N/A   Clear
10:15 AM 82.4 °F 88.2 °F 73.4 °F 74% 30.07 in 10.0 mi South 8.1 mph - N/A   Clear
10:35 AM 82.4 °F 88.2 °F 73.4 °F 74% 30.07 in 10.0 mi South 3.5 mph - N/A   Clear
10:55 AM 82.4 °F 88.2 °F 73.4 °F 74% 30.08 in 10.0 mi South 3.5 mph - N/A   Clear
11:15 AM 84.2 °F 92.3 °F 75.2 °F 74% 30.08 in 10.0 mi SSW 9.2 mph - N/A   Clear
11:35 AM 84.2 °F 92.3 °F 75.2 °F 74% 30.08 in 10.0 mi South 6.9 mph - N/A   Clear
11:55 AM 84.2 °F 90.9 °F 73.4 °F 70% 30.08 in 10.0 mi South 6.9 mph - N/A   Clear
12:15 PM 84.2 °F 92.3 °F 75.2 °F 74% 30.07 in 10.0 mi SSW 6.9 mph - N/A   Clear
12:35 PM 86.0 °F 95.1 °F 75.2 °F 70% 30.06 in 10.0 mi SSW 6.9 mph - N/A   Clear
12:55 PM 87.8 °F 95.6 °F 73.4 °F 62% 30.06 in 10.0 mi SSW 9.2 mph - N/A Thunderstorm Clear
1:15 PM 86.0 °F 91.8 °F 71.6 °F 62% 30.04 in 9.0 mi SSW 9.2 mph - N/A   Clear
1:35 PM 86.0 °F 93.4 °F 73.4 °F 66% 30.04 in 10.0 mi SSW 9.2 mph - N/A   Clear
1:55 PM 84.2 °F 90.9 °F 73.4 °F 70% 30.02 in 9.0 mi WSW 4.6 mph - N/A   Clear
2:15 PM 84.2 °F 90.9 °F 73.4 °F 70% 30.03 in 9.0 mi SSE 4.6 mph - N/A Thunderstorm Clear
2:35 PM 80.6 °F 84.6 °F 71.6 °F 74% 30.03 in 10.0 mi ESE 12.7 mph - N/A Thunderstorm Clear
2:55 PM 77.0 °F - 69.8 °F 78% 30.03 in 10.0 mi SSE 9.2 mph - N/A Thunderstorm Clear
3:15 PM 75.2 °F - 71.6 °F 89% 30.00 in 10.0 mi SE 6.9 mph - N/A Thunderstorm Clear
3:35 PM 75.2 °F - 71.6 °F 89% 30.00 in 10.0 mi Calm Calm - N/A   Clear
3:55 PM 75.2 °F - 71.6 °F 89% 30.02 in 10.0 mi East 9.2 mph - N/A   Clear
4:15 PM 75.2 °F - 69.8 °F 83% 30.01 in 10.0 mi ESE 11.5 mph - N/A   Clear
4:35 PM 75.2 °F - 68.0 °F 78% 30.02 in 10.0 mi ESE 9.2 mph - N/A   Clear
4:55 PM 75.2 °F - 68.0 °F 78% 30.02 in 10.0 mi ESE 10.4 mph - N/A   Clear
5:15 PM 75.2 °F - 68.0 °F 78% 30.02 in 10.0 mi SE 12.7 mph 18.4 mph N/A   Clear
5:35 PM 73.4 °F - 68.0 °F 83% 30.02 in 10.0 mi ESE 12.7 mph 18.4 mph N/A Thunderstorm Clear
5:55 PM 73.4 °F - 68.0 °F 83% 30.02 in 10.0 mi SE 11.5 mph 17.3 mph N/A   Clear
6:15 PM 73.4 °F - 68.0 °F 83% 30.01 in 10.0 mi ESE 13.8 mph - N/A   Clear
6:35 PM 73.4 °F - 68.0 °F 83% 30.03 in 10.0 mi SE 11.5 mph - N/A   Clear
6:55 PM 73.4 °F - 68.0 °F 83% 30.02 in 10.0 mi ESE 9.2 mph - N/A   Clear
7:15 PM 73.4 °F - 68.0 °F 83% 30.04 in 10.0 mi SE 13.8 mph - N/A   Clear
7:35 PM 73.4 °F - 68.0 °F 83% 30.03 in 10.0 mi SE 10.4 mph 16.1 mph N/A   Clear
7:55 PM 73.4 °F - 68.0 °F 83% 30.02 in 10.0 mi SE 6.9 mph - N/A   Clear
8:15 PM 71.6 °F - 66.2 °F 83% 30.03 in 10.0 mi SE 6.9 mph - N/A   Clear
8:35 PM 73.4 °F - 68.0 °F 83% 30.02 in 10.0 mi SE 10.4 mph 17.3 mph N/A   Clear
8:55 PM 71.6 °F - 68.0 °F 88% 30.05 in 10.0 mi SE 9.2 mph - N/A   Clear
9:15 PM 71.6 °F - 66.2 °F 83% 30.04 in 10.0 mi SE 8.1 mph - N/A   Clear
9:35 PM 71.6 °F - 66.2 °F 83% 30.04 in 10.0 mi SE 9.2 mph - N/A   Clear
9:55 PM 71.6 °F - 66.2 °F 83% 30.05 in 10.0 mi SSE 9.2 mph 16.1 mph N/A   Clear
10:15 PM 71.6 °F - 66.2 °F 83% 30.04 in 10.0 mi SSE 4.6 mph - N/A   Clear
10:35 PM 71.6 °F - 66.2 °F 83% 30.02 in 10.0 mi SSE 9.2 mph - N/A   Clear
10:55 PM 73.4 °F - 64.4 °F 73% 30.02 in 10.0 mi SSE 11.5 mph - N/A   Clear
11:15 PM 71.6 °F - 64.4 °F 78% 30.02 in 10.0 mi SE 9.2 mph - N/A   Clear
11:35 PM 71.6 °F - 64.4 °F 78% 30.03 in 10.0 mi SE 6.9 mph - N/A   Clear
11:55 PM 71.6 °F - 64.4 °F 78% 30.02 in 10.0 mi SE 5.8 mph - N/A   Partly Cloudy